YAOGAN-28

Last updated on Tue Jul 01 2025 00:02:30 GMT+0000 (Coordinated Universal Time)

1 41026U 15064A 25181.60349721 .00005232 00000+0 22039-3 0 9998 2 41026 97.2607 324.4569 0013312 336.8995 23.1642 15.23689466537106
UTC large
Height (km)
Speed (km/s)
/
Latitude / Longitude
Inclination (degrees)
Orbital Period (minutes)
Azimuth
Elevation
Range (km)
Doppler Factor

Next 0 passes for location: London (51.5072 / 0.1276)

Sorry there are no passes over London.